sat.trackr.live / text

‹ back to catalog

STARLINK-31602

NORAD 59202 · 2024-046B

PAYLOAD ACTIVE UNKNOWN

§ Identity

Operator
Country
US
Launch date
2024-03-11
Launch site
AFWTR
Launch vehicle
Mass (kg)
RCS (m²)

Purposes: comms

External: N2YO · Heavens-Above · Gunter

§ Orbital elements

Epoch: 2026-05-24T10:59:11.573376Z

Period
93.85 min
Inclination
53.1601°
Eccentricity
0.0001143
Mean motion
15.34391226 rev/d
Perigee alt
461.9 km
Apogee alt
463.5 km
Semi-major
6,840.9 km
B*
1.1716e-5
RAAN
162.4391°
Arg perigee
84.0679°
Mean anomaly
276.0453°
Rev number
12,466

§ Raw data

STARLINK-316021 59202U 24046B   26144.45777284  .00000020  00000+0  11716-4 0  99962 59202  53.1601 162.4391 0001143  84.0679 276.0453 15.34391226124667

JSON: /api/v1/satellites/59202 · /tle

For live sub-satellite position, see the globe view (requires WebGL).

§ Visibility from observer

Set your observer location to see the next 7 days of passes ≥ 10°. The values pass through the URL so the page stays shareable.

No JS? Fill the form by hand. The geolocation button needs JavaScript.